Погода в Мокше

Россия / Самарская область     52°40′04″N   50°24′53″E
темп.,
°C
ветер,
м/с
пор.,
м/с
влажн.,
%
обл.,
%
осадки,
мм/ч
давл.,
гПа
погр.,
м
7 мая, пт
пт701:00+12ююз4659100 0.0 101892
04:00+11ююз3566100 0.0 101870
07:00+12ю366596 0.0 1018188
10:00+17ю5744100 0.0 10181596
13:00+19ююз6837100 0.0 10172208
16:00+19ююз6736100 0.0 10172358
19:00+16ююз3651100 0.0 1016131
22:00+14ююз3654100 0.0 101788
8 мая, сб
сб801:00+12зюз3560100 0.0 101667
04:00+12зюз1164100 0.0 101712
07:00+13зюз2274100 0.1 101879
10:00+16ююз345499 0.1 10171046
13:00+19ююз344487 0.0 10172088
16:00+20ююз244092 0.0 10161914
19:00+18юв345283 0.0 101692
22:00+14юв48645 0.0 1016133
9 мая, вс
вс901:00+13ююв411653 0.0 1015189
04:00+14ююв4116056 0.0 1015237
07:00+14ююв5126698 0.0 1015391
10:00+19ю694749 0.0 10151022
13:00+22ю6737100 0.0 10142112
16:00+24ю573466 0.0 10142489
19:00+21ююв2248100 0.0 101437
22:00+17ююв41057100 0.0 1015201
10 мая, пн
пн1001:00+16ссз3467100 0.0 1017105
04:00+14ссв5885100 0.1 1019203
07:00+15св4781100 0.0 1020248
10:00+18св4563100 0.0 1021546
13:00+21св4451100 0.0 10221250
16:00+21с7659100 0.6 10231014
19:00+16ссв7117570 0.6 1024573
22:00+10ссв71479100 0.1 1026463
11 мая, вт
вт1101:00+11св6128738 0.0 1027344
04:00+10св6128945 0.0 1027342
07:00+11св7127684 0.0 1029426
10:00+15всв7853100 0.0 1029662
13:00+18св7741100 0.0 1029950
16:00+19св673350 0.0 10281119
19:00+17св510465 0.0 1028370
22:00+12всв410604 0.0 1029192